Year,Month,Day,Hour,Minute,Value (Times are PST for temperature in C)
2012,10,19,10,37,10.50
2012,10,19,10,38,10.50
2012,10,19,10,39,10.50
2012,10,19,10,40,10.50
2012,10,19,10,41,10.60
2012,10,19,10,42,10.60
2012,10,19,10,43,10.60
2012,10,19,10,44,10.60
2012,10,19,10,45,10.70
2012,10,19,10,46,10.70
2012,10,19,10,47,10.70
2012,10,19,10,48,10.70
2012,10,19,10,49,10.80
2012,10,19,10,50,10.80
2012,10,19,10,51,10.90
2012,10,19,10,52,10.90
2012,10,19,10,53,10.90
2012,10,19,10,54,11.00
2012,10,19,10,55,11.10
2012,10,19,10,56,11.10
2012,10,19,10,57,11.20
2012,10,19,10,58,11.20
2012,10,19,10,59,11.20
2012,10,19,11,00,11.20
2012,10,19,11,01,11.20
2012,10,19,11,02,11.20
2012,10,19,11,03,11.20
2012,10,19,11,04,11.20
2012,10,19,11,05,11.30
2012,10,19,11,06,11.30
2012,10,19,11,07,11.40
2012,10,19,11,08,11.50
2012,10,19,11,09,11.70
2012,10,19,11,10,11.80
2012,10,19,11,11,11.90
2012,10,19,11,12,12.00
2012,10,19,11,13,12.10
2012,10,19,11,14,12.20
2012,10,19,11,15,12.20
2012,10,19,11,16,12.20
2012,10,19,11,17,12.20
2012,10,19,11,18,12.20
2012,10,19,11,19,12.20
2012,10,19,11,20,12.20
2012,10,19,11,21,12.30
2012,10,19,11,22,12.30
2012,10,19,11,23,12.40
2012,10,19,11,24,12.40
2012,10,19,11,25,12.40
2012,10,19,11,26,12.40
2012,10,19,11,27,12.40
2012,10,19,11,28,12.40
2012,10,19,11,29,12.40
2012,10,19,11,30,12.50
2012,10,19,11,31,12.50
2012,10,19,11,32,12.60
2012,10,19,11,33,12.60
2012,10,19,11,34,12.60
2012,10,19,11,35,12.50
2012,10,19,11,36,12.40
2012,10,19,11,37,12.40
2012,10,19,11,38,12.40
2012,10,19,11,39,12.50
2012,10,19,11,40,12.50
2012,10,19,11,41,12.40
2012,10,19,11,42,12.40
2012,10,19,11,43,12.40
2012,10,19,11,44,12.30
2012,10,19,11,45,12.30
2012,10,19,11,46,12.20
2012,10,19,11,47,12.20
2012,10,19,11,48,12.10
2012,10,19,11,49,12.00
2012,10,19,11,50,12.00
2012,10,19,11,51,12.00
2012,10,19,11,52,12.10
2012,10,19,11,53,12.10
2012,10,19,11,54,12.10
2012,10,19,11,55,12.10
2012,10,19,11,56,12.20
2012,10,19,11,57,12.10
2012,10,19,11,58,12.10
2012,10,19,11,59,12.00
2012,10,19,12,00,12.00
2012,10,19,12,01,12.00
2012,10,19,12,02,12.00
2012,10,19,12,03,12.00
2012,10,19,12,04,12.10
2012,10,19,12,05,12.20
2012,10,19,12,06,12.20
2012,10,19,12,07,12.20
2012,10,19,12,08,12.20
2012,10,19,12,09,12.20
2012,10,19,12,10,12.20
2012,10,19,12,11,12.20
2012,10,19,12,12,12.20
2012,10,19,12,13,12.20
2012,10,19,12,14,12.20
2012,10,19,12,15,12.20
2012,10,19,12,16,12.30
2012,10,19,12,17,12.30
2012,10,19,12,18,12.30
2012,10,19,12,19,12.40
2012,10,19,12,20,12.40
2012,10,19,12,21,12.40
2012,10,19,12,22,12.40
2012,10,19,12,23,12.40
2012,10,19,12,24,12.30
2012,10,19,12,25,12.30
2012,10,19,12,26,12.30
2012,10,19,12,27,12.30
2012,10,19,12,28,12.30
2012,10,19,12,29,12.30
2012,10,19,12,30,12.30
2012,10,19,12,31,12.30
2012,10,19,12,32,12.30
2012,10,19,12,33,12.30
2012,10,19,12,34,12.30
2012,10,19,12,35,12.30
2012,10,19,12,36,12.20
2012,10,19,12,37,12.20
2012,10,19,12,38,12.20
2012,10,19,12,39,12.10
2012,10,19,12,40,12.10
2012,10,19,12,41,12.00
2012,10,19,12,42,12.00
2012,10,19,12,43,11.90
2012,10,19,12,44,11.90
2012,10,19,12,45,11.80
2012,10,19,12,46,11.80
2012,10,19,12,47,11.70
2012,10,19,12,48,11.70
2012,10,19,12,49,11.60
2012,10,19,12,50,11.50
2012,10,19,12,51,11.50
2012,10,19,12,52,11.40
2012,10,19,12,53,11.40
2012,10,19,12,54,11.40
2012,10,19,12,55,11.40
2012,10,19,12,56,11.50
2012,10,19,12,57,11.50
2012,10,19,12,58,11.50
2012,10,19,12,59,11.60
2012,10,19,13,00,11.50
2012,10,19,13,01,11.50
2012,10,19,13,02,11.40
2012,10,19,13,03,11.30
2012,10,19,13,04,11.30
2012,10,19,13,05,11.30
2012,10,19,13,06,11.30
2012,10,19,13,07,11.30
2012,10,19,13,08,11.30
2012,10,19,13,09,11.30
2012,10,19,13,10,11.20
2012,10,19,13,11,11.20
2012,10,19,13,12,11.20
2012,10,19,13,13,11.20
2012,10,19,13,14,11.20
2012,10,19,13,15,11.30
2012,10,19,13,16,11.30
2012,10,19,13,17,11.30
2012,10,19,13,18,11.30
2012,10,19,13,19,11.30
2012,10,19,13,20,11.40
2012,10,19,13,21,11.40
2012,10,19,13,22,11.50
2012,10,19,13,23,11.60
2012,10,19,13,24,11.70
2012,10,19,13,25,11.70
2012,10,19,13,26,11.80
2012,10,19,13,27,11.90
2012,10,19,13,28,12.00
2012,10,19,13,29,12.00
2012,10,19,13,30,12.10
2012,10,19,13,31,12.10
2012,10,19,13,32,12.10
2012,10,19,13,33,12.10
2012,10,19,13,34,12.10
2012,10,19,13,35,12.20
2012,10,19,13,36,12.10
2012,10,19,13,37,12.10
2012,10,19,13,38,12.10
2012,10,19,13,39,12.10
2012,10,19,13,40,12.00
2012,10,19,13,41,11.90
2012,10,19,13,42,11.90
2012,10,19,13,43,11.90
2012,10,19,13,44,11.90
2012,10,19,13,45,11.90
2012,10,19,13,46,11.90
2012,10,19,13,47,12.00
2012,10,19,13,48,12.00
2012,10,19,13,49,12.10
2012,10,19,13,50,12.10
2012,10,19,13,51,12.10
2012,10,19,13,52,12.00
2012,10,19,13,53,11.90
2012,10,19,13,54,11.90
2012,10,19,13,55,11.90
2012,10,19,13,56,11.90
2012,10,19,13,57,11.90
2012,10,19,13,58,11.90
2012,10,19,13,59,11.90
2012,10,19,14,00,11.80
2012,10,19,14,01,11.80
2012,10,19,14,02,11.80
2012,10,19,14,03,11.80
2012,10,19,14,04,11.80
2012,10,19,14,05,11.90
2012,10,19,14,06,11.90
2012,10,19,14,07,11.90
2012,10,19,14,08,11.90
2012,10,19,14,09,11.90
2012,10,19,14,10,11.90
2012,10,19,14,11,11.90
2012,10,19,14,12,11.90
2012,10,19,14,13,11.90
2012,10,19,14,14,11.90
2012,10,19,14,15,11.90
2012,10,19,14,16,11.90
2012,10,19,14,17,11.80
2012,10,19,14,18,11.80
2012,10,19,14,19,11.70
2012,10,19,14,20,11.70
2012,10,19,14,21,11.70
2012,10,19,14,22,11.70
2012,10,19,14,23,11.70
2012,10,19,14,24,11.80
2012,10,19,14,25,11.80
2012,10,19,14,26,11.90
2012,10,19,14,27,12.00
2012,10,19,14,28,12.00
2012,10,19,14,29,12.10
2012,10,19,14,30,12.10
2012,10,19,14,31,12.00
2012,10,19,14,32,11.90
2012,10,19,14,33,11.80
2012,10,19,14,34,11.80
2012,10,19,14,35,11.70
2012,10,19,14,36,11.70
2012,10,19,14,37,11.60
2012,10,19,14,38,11.60
2012,10,19,14,39,11.60
2012,10,19,14,40,11.60
2012,10,19,14,41,11.50
2012,10,19,14,42,11.50
2012,10,19,14,43,11.40
2012,10,19,14,44,11.40
2012,10,19,14,45,11.40
2012,10,19,14,46,11.30
2012,10,19,14,47,11.30
2012,10,19,14,48,11.30
2012,10,19,14,49,11.30
2012,10,19,14,50,11.30
2012,10,19,14,51,11.30
2012,10,19,14,52,11.20
2012,10,19,14,53,11.20
2012,10,19,14,54,11.10
2012,10,19,14,55,11.10
2012,10,19,14,56,11.10
2012,10,19,14,57,11.10
2012,10,19,14,58,11.10
2012,10,19,14,59,11.20
2012,10,19,15,00,11.20
2012,10,19,15,01,11.20
2012,10,19,15,02,11.20
2012,10,19,15,03,11.10
2012,10,19,15,04,11.10
2012,10,19,15,05,11.10
2012,10,19,15,06,11.10
2012,10,19,15,07,11.10
2012,10,19,15,08,11.00
2012,10,19,15,09,11.00
2012,10,19,15,10,11.00
2012,10,19,15,11,10.90
2012,10,19,15,12,10.90
2012,10,19,15,13,10.90
2012,10,19,15,14,10.80
2012,10,19,15,15,10.80
2012,10,19,15,16,10.80
2012,10,19,15,17,10.70
2012,10,19,15,18,10.70
2012,10,19,15,19,10.60
2012,10,19,15,20,10.60
2012,10,19,15,21,10.60
2012,10,19,15,22,10.60
2012,10,19,15,23,10.60
2012,10,19,15,24,10.50
2012,10,19,15,25,10.50
2012,10,19,15,26,10.60
2012,10,19,15,27,10.60
2012,10,19,15,28,10.60
2012,10,19,15,29,10.60
2012,10,19,15,30,10.60
2012,10,19,15,31,10.60
2012,10,19,15,32,10.60
2012,10,19,15,33,10.60
2012,10,19,15,34,10.70
2012,10,19,15,35,10.70
2012,10,19,15,36,10.70
2012,10,19,15,37,10.80
2012,10,19,15,38,10.90
2012,10,19,15,39,10.90
2012,10,19,15,40,11.00
2012,10,19,15,41,11.10
2012,10,19,15,42,11.20
2012,10,19,15,43,11.30
2012,10,19,15,44,11.40
2012,10,19,15,45,11.50
2012,10,19,15,46,11.60
2012,10,19,15,47,11.70
2012,10,19,15,48,11.80
2012,10,19,15,49,11.80
2012,10,19,15,50,11.90
2012,10,19,15,51,11.90
2012,10,19,15,52,11.90
2012,10,19,15,53,11.90
2012,10,19,15,54,11.90
2012,10,19,15,55,11.90
2012,10,19,15,56,11.90
2012,10,19,15,57,11.90
2012,10,19,15,58,11.90
2012,10,19,15,59,11.90
2012,10,19,16,00,11.90
2012,10,19,16,01,11.90
2012,10,19,16,02,12.00
2012,10,19,16,03,12.00
2012,10,19,16,04,11.90
2012,10,19,16,05,11.90
2012,10,19,16,06,11.90
2012,10,19,16,07,11.90
2012,10,19,16,08,11.90
2012,10,19,16,09,11.90
2012,10,19,16,10,12.00
2012,10,19,16,11,12.00
2012,10,19,16,12,12.10
2012,10,19,16,13,12.10
2012,10,19,16,14,12.10
2012,10,19,16,15,12.10
2012,10,19,16,16,12.10
2012,10,19,16,17,12.00
2012,10,19,16,18,12.00
2012,10,19,16,19,12.00
2012,10,19,16,20,12.00
2012,10,19,16,21,11.90
2012,10,19,16,22,11.90
2012,10,19,16,23,11.80
2012,10,19,16,24,11.80
2012,10,19,16,25,11.80
2012,10,19,16,26,11.80
2012,10,19,16,27,11.80
2012,10,19,16,28,11.80
2012,10,19,16,29,11.80
2012,10,19,16,30,11.70
2012,10,19,16,31,11.70
2012,10,19,16,32,11.70
2012,10,19,16,33,11.70
2012,10,19,16,34,11.70
2012,10,19,16,35,11.70
2012,10,19,16,36,11.70
2012,10,19,16,37,11.60
2012,10,19,16,38,11.60
2012,10,19,16,39,11.60
2012,10,19,16,40,11.70
2012,10,19,16,41,11.70
2012,10,19,16,42,11.70
2012,10,19,16,43,11.70
2012,10,19,16,44,11.70
2012,10,19,16,45,11.80
2012,10,19,16,46,11.80
2012,10,19,16,47,11.80
2012,10,19,16,48,11.80
2012,10,19,16,49,11.80
2012,10,19,16,50,11.80
2012,10,19,16,51,11.80
2012,10,19,16,52,11.80
2012,10,19,16,53,11.70
2012,10,19,16,54,11.70
2012,10,19,16,55,11.70
2012,10,19,16,56,11.70
2012,10,19,16,57,11.70
2012,10,19,16,58,11.70
2012,10,19,16,59,11.70
2012,10,19,17,00,11.70
2012,10,19,17,01,11.70
2012,10,19,17,02,11.70
2012,10,19,17,03,11.70
2012,10,19,17,04,11.70
2012,10,19,17,05,11.60
2012,10,19,17,06,11.60
2012,10,19,17,07,11.50
2012,10,19,17,08,11.40
2012,10,19,17,09,11.30
2012,10,19,17,10,11.30
2012,10,19,17,11,11.20
2012,10,19,17,12,11.20
2012,10,19,17,13,11.10
2012,10,19,17,14,11.10
2012,10,19,17,15,11.00
2012,10,19,17,16,10.90
2012,10,19,17,17,10.90
2012,10,19,17,18,10.80
2012,10,19,17,19,10.80
2012,10,19,17,20,10.70
2012,10,19,17,21,10.60
2012,10,19,17,22,10.60
2012,10,19,17,23,10.50
2012,10,19,17,24,10.50
2012,10,19,17,25,10.40
2012,10,19,17,26,10.40
2012,10,19,17,27,10.30
2012,10,19,17,28,10.30
2012,10,19,17,29,10.20
2012,10,19,17,30,10.20
2012,10,19,17,31,10.10
2012,10,19,17,32,10.10
2012,10,19,17,33,10.10
2012,10,19,17,34,10.00
2012,10,19,17,35,9.90
2012,10,19,17,36,9.90
2012,10,19,17,37,9.80
2012,10,19,17,38,9.70
2012,10,19,17,39,9.70
2012,10,19,17,40,9.60
2012,10,19,17,41,9.60
2012,10,19,17,42,9.50
2012,10,19,17,43,9.50
2012,10,19,17,44,9.40
2012,10,19,17,45,9.40
2012,10,19,17,46,9.30
2012,10,19,17,47,9.30
2012,10,19,17,48,9.30
2012,10,19,17,49,9.20
2012,10,19,17,50,9.20
2012,10,19,17,51,9.10
2012,10,19,17,52,9.00
2012,10,19,17,53,9.00
2012,10,19,17,54,8.90
2012,10,19,17,55,8.90
2012,10,19,17,56,8.90
2012,10,19,17,57,8.90
2012,10,19,17,58,8.80
2012,10,19,17,59,8.80
2012,10,19,18,00,8.80
2012,10,19,18,01,8.80
2012,10,19,18,02,8.80
2012,10,19,18,03,8.70
2012,10,19,18,04,8.70
2012,10,19,18,05,8.70
2012,10,19,18,06,8.70
2012,10,19,18,07,8.60
2012,10,19,18,08,8.60
2012,10,19,18,09,8.60
2012,10,19,18,10,8.50
2012,10,19,18,11,8.50
2012,10,19,18,12,8.40
2012,10,19,18,13,8.40
2012,10,19,18,14,8.30
2012,10,19,18,15,8.30
2012,10,19,18,16,8.30
2012,10,19,18,17,8.20
2012,10,19,18,18,8.20
2012,10,19,18,19,8.20
2012,10,19,18,20,8.20
2012,10,19,18,21,8.20
2012,10,19,18,22,8.10
2012,10,19,18,23,8.10
2012,10,19,18,24,8.00
2012,10,19,18,25,8.00
2012,10,19,18,26,7.90
2012,10,19,18,27,7.90
2012,10,19,18,28,7.90
2012,10,19,18,29,7.80
2012,10,19,18,30,7.80
2012,10,19,18,31,7.80
2012,10,19,18,32,7.70
2012,10,19,18,33,7.60
2012,10,19,18,34,7.60
2012,10,19,18,35,7.50
2012,10,19,18,36,7.50
2012,10,19,18,37,7.40
2012,10,19,18,38,7.40
2012,10,19,18,39,7.40
2012,10,19,18,40,7.40
2012,10,19,18,41,7.30
2012,10,19,18,42,7.30
2012,10,19,18,43,7.30
2012,10,19,18,44,7.30
2012,10,19,18,45,7.30
2012,10,19,18,46,7.30
2012,10,19,18,47,7.30
2012,10,19,18,48,7.30
2012,10,19,18,49,7.30
2012,10,19,18,50,7.30
2012,10,19,18,51,7.30
2012,10,19,18,52,7.30
2012,10,19,18,53,7.30
2012,10,19,18,54,7.30
2012,10,19,18,55,7.30
2012,10,19,18,56,7.30
2012,10,19,18,57,7.30
2012,10,19,18,58,7.30
2012,10,19,18,59,7.30
2012,10,19,19,00,7.30
2012,10,19,19,01,7.20
2012,10,19,19,02,7.20
2012,10,19,19,03,7.20
2012,10,19,19,04,7.20
2012,10,19,19,05,7.20
2012,10,19,19,06,7.20
2012,10,19,19,07,7.20
2012,10,19,19,08,7.20
2012,10,19,19,09,7.20
2012,10,19,19,10,7.20
2012,10,19,19,11,7.10
2012,10,19,19,12,7.10
2012,10,19,19,13,7.10
2012,10,19,19,14,7.10
2012,10,19,19,15,7.10
2012,10,19,19,16,7.00
2012,10,19,19,17,7.00
2012,10,19,19,18,7.00
2012,10,19,19,19,7.00
2012,10,19,19,20,7.00
2012,10,19,19,21,7.00
2012,10,19,19,22,7.00
2012,10,19,19,23,7.10
2012,10,19,19,24,7.00
2012,10,19,19,25,7.10
2012,10,19,19,26,7.10
2012,10,19,19,27,7.10
2012,10,19,19,28,7.10
2012,10,19,19,29,7.00
2012,10,19,19,30,7.00
2012,10,19,19,31,6.90
2012,10,19,19,32,6.90
2012,10,19,19,33,6.80
2012,10,19,19,34,6.80
2012,10,19,19,35,6.80
2012,10,19,19,36,6.80
2012,10,19,19,37,6.80
2012,10,19,19,38,6.80
2012,10,19,19,39,6.80
2012,10,19,19,40,6.80
2012,10,19,19,41,6.80
2012,10,19,19,42,6.80
2012,10,19,19,43,6.80
2012,10,19,19,44,6.80
2012,10,19,19,45,6.80
2012,10,19,19,46,6.80
2012,10,19,19,47,6.80
2012,10,19,19,48,6.80
2012,10,19,19,49,6.80
2012,10,19,19,50,6.80
2012,10,19,19,51,6.80
2012,10,19,19,52,6.80
2012,10,19,19,53,6.80
2012,10,19,19,54,6.80
2012,10,19,19,55,6.80
2012,10,19,19,56,6.70
2012,10,19,19,57,6.70
2012,10,19,19,58,6.70
2012,10,19,19,59,6.70
2012,10,19,20,00,6.70
2012,10,19,20,01,6.70
2012,10,19,20,02,6.70
2012,10,19,20,03,6.70
2012,10,19,20,04,6.70
2012,10,19,20,05,6.70
2012,10,19,20,06,6.70
2012,10,19,20,07,6.70
2012,10,19,20,08,6.70
2012,10,19,20,09,6.60
2012,10,19,20,10,6.60
2012,10,19,20,11,6.60
2012,10,19,20,12,6.60
2012,10,19,20,13,6.60
2012,10,19,20,14,6.60
2012,10,19,20,15,6.60
2012,10,19,20,16,6.50
2012,10,19,20,17,6.50
2012,10,19,20,18,6.50
2012,10,19,20,19,6.50
2012,10,19,20,20,6.50
2012,10,19,20,21,6.50
2012,10,19,20,22,6.50
2012,10,19,20,23,6.50
2012,10,19,20,24,6.50
2012,10,19,20,25,6.50
2012,10,19,20,26,6.50
2012,10,19,20,27,6.50
2012,10,19,20,28,6.50
2012,10,19,20,29,6.50
2012,10,19,20,30,6.50
2012,10,19,20,31,6.50
2012,10,19,20,32,6.50
2012,10,19,20,33,6.50
2012,10,19,20,34,6.50
2012,10,19,20,35,6.50
2012,10,19,20,36,6.50
